ABOUT US
vACC Philippines is a recognized member of the VATSIM network. We are dedicated to enchancing the online experience of both local and international virtual pilots. Mandated to provide professional and realistic air traffic operations.

vACC Philippines aims to provide the most realistic air traffic system simulation service that is close to the real thing as possible when flying on the VATSIM network.


METARS

RPLL 251300Z 12004KT 080V150 9999 FEW023 BKN100 29/25 Q1010 NOSIG RMK A2983


RPVM 251300Z 34003KT 310V040 9999 FEW018CB SCT250 29/24 Q1010 RMK A2983 CB/LTG OCNL W


RPMD 251300Z 18005KT 9999 FEW016 SCT290 29/26 Q1010 RMK A2983



AIRFIELDS COVERED


Manila (RPLL)

Subic Bay (RPLB)

Mactan-Cebu (RPVM)

Clark (RPLC)

Laoag (RPLI)


Davao (RPMD)


Bacolod (RPVB)


Zamboanga (RPMZ)


General Santos (RPMR)


Iloilo (RPVI)


Kalibo (RPVK)


Legazpi (RPLP)


Puerto Princesa (RPVP)